Regional Weather Roundup
Issued by NWS Albany, NY

Home | Current Version | Previous Version | Text Only | Print | Product List | Glossary On
Versions: 1 2 3 4 5 6 7 8 9 10 11 12 13 14 15 16 17 18 19 20 21 22 23 24 25 26 27
000
ASUS41 KALY 222210
RWRALY

NEW YORK STATE HOURLY WEATHER ROUNDUP
NATIONAL WEATHER SERVICE ALBANY NY
600 PM EDT TUE APR 22 2014

NOTE: "FAIR" INDICATES FEW OR NO CLOUDS BELOW 12,000 FEET WITH NO
SIGNIFICANT WEATHER AND/OR NO OBSTRUCTIONS TO VISIBILITY.

NYZ032-033-038>043-046>054-057>066-NYZ062>081-222300-
EAST


CITY           SKY/WX    TMP DP  RH WIND       PRES   REMARKS
ALBANY         LGT RAIN  61  46  57 N8        29.49S
GLENS FALLS    LGT RAIN  61  52  72 S9        29.48S
POUGHKEEPSIE   CLOUDY    63  50  62 SW6       29.51F
NEWBURGH       PTSUNNY   61  54  77 VRB5      29.54F
MONTGOMERY     CLOUDY    62  52  69 SW7       29.51F
WHITE PLAINS   CLOUDY    60  49  66 SE6       29.53F
ISLIP          LGT RAIN  55  46  71 SW15      29.55F
NEW YORK CITY  CLOUDY    62  48  60 VRB3      29.53F
CENTRAL PARK   CLOUDY    67  51  56 CALM      29.56F
$$

NYZ005>009-017-018-044>046-055-056-222300-
CENTRAL


CITY           SKY/WX    TMP DP  RH WIND       PRES   REMARKS
FULTON         CLOUDY    50  44  80 W21G28    29.56R
SYRACUSE       LGT RAIN  56  49  77 W15       29.54R
ROME           CLOUDY    54  51  90 NW8       29.54R
ELMIRA         CLOUDY    62  46  55 NW18G24   29.53R
BINGHAMTON     MOSUNNY   56  51  84 N5        29.53S
MONTICELLO     CLOUDY    55  52  88 CALM      29.55F
$$

NYZ026>034-041>043-222300-
NORTH


CITY           SKY/WX    TMP DP  RH WIND       PRES   REMARKS
WATERTOWN      CLOUDY    54  47  77 SW12      29.51R HAZE
FORT DRUM      NOT AVBL
MASSENA        CLOUDY    51  50  96 SW12      29.47R FOG
SARANAC LAKE   CLOUDY    52  49  89 W8G17     29.44R
PLATTSBURGH    CLOUDY    53  50  89 CALM      29.42S
$$

NYZ001>004-010>016-019>021-222300-
WEST


CITY           SKY/WX    TMP DP  RH WIND       PRES   REMARKS
NIAGARA FALLS  CLOUDY    45  36  70 NW26G35   29.65R
BUFFALO        CLOUDY    42  37  82 SW20G25   29.64R
DUNKIRK        CLOUDY    41  35  79 W10       29.71R
JAMESTOWN      CLOUDY    43  36  75 W15G21    29.69R
WELLSVILLE     MOSUNNY   54  42  64 NW17      29.60R
ROCHESTER      CLOUDY    53  46  77 W10       29.59R
PENN YAN       CLOUDY    59  49  69 W9G21     29.55R
$$

             KEY
       WCI = WIND CHILL INDEX
       VSB = VISIBILITY
       HX  = HEAT INDEX
$$



USA.gov is the U.S. government's official web portal to all federal, state and local government web resources and services.